sat.trackr.live / text

‹ back to catalog

EDDA-1

NORAD 69018 · 2026-100AQ

PAYLOAD ACTIVE UNKNOWN

§ Identity

Operator
Country
US
Launch date
2026-05-03
Launch site
AFWTR
Launch vehicle
Mass (kg)
RCS (m²)

Purposes: earth_obs

External: N2YO · Heavens-Above · Gunter

§ Orbital elements

Epoch: 2026-05-24T23:45:41.393952Z

Period
94.73 min
Inclination
97.4071°
Eccentricity
0.0006384
Mean motion
15.20164231 rev/d
Perigee alt
501.0 km
Apogee alt
509.7 km
Semi-major
6,883.5 km
B*
1.0932e-4
RAAN
43.2291°
Arg perigee
99.4819°
Mean anomaly
260.7138°
Rev number
329

§ Raw data

EDDA-11 69018U 26100AQ  26144.99006243  .00002298  00000+0  10932-3 0  99912 69018  97.4071  43.2291 0006384  99.4819 260.7138 15.20164231  3292

JSON: /api/v1/satellites/69018 · /tle

For live sub-satellite position, see the globe view (requires WebGL).

§ Visibility from observer

Set your observer location to see the next 7 days of passes ≥ 10°. The values pass through the URL so the page stays shareable.

No JS? Fill the form by hand. The geolocation button needs JavaScript.